Date String (YYYY-MM-DD hh:mm:ss) UTC,Instrument flags,absolute air pressure of the measurement (hPa),sample flow rate (lpm),inlet stack bypass flow (lpm),air temperature of the measurement (°C),ambient temperature measured by the external sensor (°C),aerosol sample conditioner tube jacket temperature (°C),OPC LED temperature (°C),internal box temperature (°C),relative humidity of the measurement (%),span deviation,mass concentration of particles derived from Lorenz-Mie calculation of OPC scattering (μg/m³),mass concentration of particles derived from Lorenz-Mie calculation of OPC scattering (μg/m³),mass concentration of particles derived from Lorenz-Mie calculation of OPC scattering (μg/m³)
DateTimeUTC,F1_M11,P_M11,Q1_M11,Q2_M11,T1_M11,T2_M11,T3_M11,T4_M11,T5_M11,U1_M11,ZSPAN_M11,X0_M11,X2_M11,X1_M11
2024-06-15 05:00:00,SystemResetWarning,0829.0,5.01,000.00,029.9,026.7,000.0,038.9,030.7,037.1,-000.1,0029.73,0009.81,0007.18
2024-06-15 05:01:00,SystemResetWarning,0829.0,4.99,000.00,029.8,027.1,000.0,038.8,030.9,037.5,0000.2,0028.88,0009.83,0007.13
2024-06-15 05:02:00,SystemResetWarning,0829.0,4.99,000.00,029.8,027.5,000.0,038.7,031.1,037.6,0000.2,0027.00,0009.78,0007.06
2024-06-15 05:03:00,SystemResetWarning,0828.8,5.01,000.00,029.8,027.9,000.0,038.6,031.3,037.7,0000.3,0025.59,0009.71,0006.98
2024-06-15 05:04:00,SystemResetWarning,0828.8,5.00,000.00,029.9,028.3,000.0,038.6,031.4,037.7,0000.8,0026.15,0009.67,0006.91
2024-06-15 05:05:00,SystemResetWarning,0828.8,5.00,000.00,029.9,028.5,000.0,038.5,031.5,037.7,0000.1,0028.19,0009.59,0006.86
2024-06-15 05:06:00,SystemResetWarning,0828.8,5.00,000.00,029.9,028.8,000.0,038.5,031.6,037.6,-000.1,0027.39,0009.49,0006.81
2024-06-15 05:07:00,SystemResetWarning,0828.8,5.00,000.00,030.0,029.0,000.0,038.5,031.7,037.5,0000.3,0027.78,0009.33,0006.77
2024-06-15 05:08:00,SystemResetWarning,0828.7,5.01,000.00,030.0,029.1,000.0,038.5,031.8,037.4,-000.2,0027.39,0009.25,0006.70
2024-06-15 05:09:00,SystemResetWarning,0828.8,5.00,000.00,030.1,029.2,000.0,038.5,031.8,037.3,-000.1,0026.54,0009.16,0006.67
2024-06-15 05:10:00,SystemResetWarning,0828.8,5.00,000.00,030.1,029.4,000.0,038.5,031.9,037.3,-000.0,0025.75,0009.08,0006.65
2024-06-15 05:11:00,SystemResetWarning,0828.9,5.00,000.00,030.1,029.5,000.0,038.5,031.9,037.1,-000.7,0025.39,0009.10,0006.64
2024-06-15 05:12:00,SystemResetWarning,0829.0,5.00,000.00,030.2,029.6,000.0,038.5,032.0,037.0,-001.2,0025.45,0009.02,0006.64
2024-06-15 05:13:00,SystemResetWarning,0829.1,5.00,000.00,030.2,029.6,000.0,038.5,032.1,036.9,-001.3,0025.94,0008.99,0006.65
2024-06-15 05:14:00,SystemResetWarning,0829.1,5.00,000.00,030.3,029.7,000.0,038.5,032.1,036.7,-001.5,0026.04,0008.95,0006.67
2024-06-15 05:15:00,SystemResetWarning,0829.2,5.00,000.00,030.3,029.8,000.0,038.6,032.2,036.5,-001.9,0026.17,0008.96,0006.69
2024-06-15 05:16:00,SystemResetWarning,0829.3,5.00,000.00,030.4,029.8,000.0,038.6,032.2,036.3,-001.3,0024.84,0008.96,0006.71
2024-06-15 05:17:00,SystemResetWarning,0829.3,5.00,000.00,030.4,029.9,000.0,038.6,032.2,036.1,-000.8,0025.42,0008.94,0006.70
2024-06-15 05:18:00,SystemResetWarning,0829.3,5.00,000.00,030.4,029.9,000.0,038.6,032.2,035.9,-000.9,0026.84,0009.07,0006.72
2024-06-15 05:19:00,SystemResetWarning,0829.3,5.00,000.00,030.5,029.9,000.0,038.7,032.3,035.9,-001.3,0028.33,0009.17,0006.74
2024-06-15 05:20:00,SystemResetWarning,0829.2,5.00,000.00,030.5,030.0,000.0,038.7,032.3,035.9,-001.4,0030.05,0009.21,0006.75
2024-06-15 05:21:00,SystemResetWarning,0829.2,5.00,000.00,030.6,030.0,000.0,038.7,032.4,035.9,-001.5,0029.81,0009.30,0006.78
2024-06-15 05:22:00,SystemResetWarning,0829.1,5.00,000.00,030.6,030.1,000.0,038.7,032.4,036.1,-001.0,0029.60,0009.36,0006.82
2024-06-15 05:23:00,SystemResetWarning,0829.1,5.00,000.00,030.6,030.1,000.0,038.8,032.4,036.1,-000.5,0029.08,0009.41,0006.85
2024-06-15 05:24:00,SystemResetWarning,0829.1,5.00,000.00,030.6,030.1,000.0,038.8,032.4,036.0,0000.0,0027.81,0009.43,0006.88
2024-06-15 05:25:00,SystemResetWarning,0829.1,4.99,000.00,030.7,030.1,000.0,038.8,032.4,035.8,0000.3,0026.92,0009.42,0006.91
2024-06-15 05:26:00,SystemResetWarning,0829.1,5.00,000.00,030.7,030.2,000.0,038.9,032.5,035.8,0000.6,0027.05,0009.44,0006.93
2024-06-15 05:27:00,SystemResetWarning,0829.1,5.00,000.00,030.7,030.2,000.0,038.9,032.5,035.8,0000.6,0026.92,0009.48,0006.97
2024-06-15 05:28:00,SystemResetWarning,0829.1,4.99,000.00,030.6,028.7,000.0,038.9,031.7,036.0,0000.6,0026.19,0009.55,0007.04
2024-06-15 05:29:00,SystemResetWarning,0829.0,5.02,000.00,030.2,026.7,000.0,039.0,030.8,036.8,0000.8,0024.44,0009.57,0007.09
2024-06-15 05:30:00,SystemResetWarning,0829.0,5.01,000.00,029.9,026.4,000.0,038.9,030.6,037.3,0001.5,0024.51,0009.58,0007.14
2024-06-15 05:31:00,SystemResetWarning,0829.0,4.99,000.00,029.7,026.8,000.0,038.7,030.7,037.6,0002.2,0023.91,0009.70,0007.18
2024-06-15 05:32:00,SystemResetWarning,0829.1,5.00,000.00,029.7,027.3,000.0,038.6,031.0,037.9,0002.2,0023.86,0009.66,0007.20
2024-06-15 05:33:00,SystemResetWarning,0829.1,5.01,000.00,029.7,027.7,000.0,038.5,031.2,038.0,0002.4,0024.49,0009.63,0007.23
2024-06-15 05:34:00,SystemResetWarning,0829.1,5.00,000.00,029.8,028.1,000.0,038.5,031.3,037.9,0000.8,0025.71,0009.62,0007.24
2024-06-15 05:35:00,SystemResetWarning,0829.1,5.00,000.00,029.8,028.4,000.0,038.4,031.4,037.8,0002.7,0026.34,0009.67,0007.25
2024-06-15 05:36:00,SystemResetWarning,0829.1,5.00,000.00,029.8,028.6,000.0,038.4,031.5,037.8,0002.8,0027.27,0009.79,0007.26
2024-06-15 05:37:00,SystemResetWarning,0829.1,5.00,000.00,029.9,028.8,000.0,038.4,031.6,037.8,0002.5,0027.30,0009.81,0007.27
2024-06-15 05:38:00,SystemResetWarning,0829.1,5.00,000.00,029.9,029.0,000.0,038.4,031.7,037.9,0002.5,0026.89,0009.83,0007.26
2024-06-15 05:39:00,SystemResetWarning,0829.1,5.00,000.00,030.0,029.1,000.0,038.4,031.8,037.8,0002.9,0026.44,0009.79,0007.23
2024-06-15 05:40:00,SystemResetWarning,0829.1,5.00,000.00,030.0,029.2,000.0,038.4,031.8,037.7,0002.9,0025.69,0009.70,0007.20
2024-06-15 05:41:00,SystemResetWarning,0829.1,5.00,000.00,030.1,029.3,000.0,038.4,031.9,037.5,0002.8,0025.30,0009.69,0007.19
2024-06-15 05:42:00,SystemResetWarning,0829.1,5.00,000.00,030.1,029.4,000.0,038.4,031.9,037.5,0002.4,0025.78,0009.61,0007.18
2024-06-15 05:43:00,SystemResetWarning,0829.1,5.00,000.00,030.1,029.5,000.0,038.4,032.0,037.4,0002.3,0026.24,0009.61,0007.18
2024-06-15 05:44:00,SystemResetWarning,0829.2,5.00,000.00,030.2,029.6,000.0,038.4,032.0,037.4,0002.1,0025.86,0009.64,0007.16
2024-06-15 05:45:00,SystemResetWarning,0829.2,5.00,000.00,030.2,029.7,000.0,038.5,032.1,037.4,0002.0,0025.02,0009.63,0007.14
2024-06-15 05:46:00,SystemResetWarning,0829.2,5.00,000.00,030.3,029.7,000.0,038.5,032.1,037.4,0001.3,0024.31,0009.54,0007.12
2024-06-15 05:47:00,SystemResetWarning,0829.2,5.00,000.00,030.3,029.8,000.0,038.5,032.1,037.2,0001.5,0024.10,0009.49,0007.09
2024-06-15 05:48:00,SystemResetWarning,0829.2,5.00,000.00,030.4,029.8,000.0,038.5,032.2,037.1,0001.5,0023.21,0009.43,0007.07
2024-06-15 05:49:00,SystemResetWarning,0829.2,5.00,000.00,030.4,029.9,000.0,038.6,032.2,037.1,0001.3,0022.98,0009.34,0007.04
2024-06-15 05:50:00,SystemResetWarning,0829.2,5.00,000.00,030.4,029.9,000.0,038.6,032.2,037.1,0000.6,0023.75,0009.35,0007.03
2024-06-15 05:51:00,SystemResetWarning,0829.2,5.00,000.00,030.5,030.0,000.0,038.6,032.3,037.1,0000.1,0024.27,0009.37,0007.02
2024-06-15 05:52:00,SystemResetWarning,0829.2,4.99,000.00,030.5,030.0,000.0,038.7,032.3,037.1,-000.6,0026.48,0009.31,0006.99
2024-06-15 05:53:00,SystemResetWarning,0829.2,5.00,000.00,030.6,030.0,000.0,038.7,032.3,037.0,-000.9,0025.49,0009.31,0006.96
2024-06-15 05:54:00,SystemResetWarning,0829.2,5.00,000.00,030.6,029.9,000.0,038.7,032.2,036.9,-001.3,0024.94,0009.31,0006.94
2024-06-15 05:55:00,SystemResetWarning,0829.1,4.99,000.00,030.3,027.9,000.0,038.8,031.3,037.4,-001.6,0025.05,0009.24,0006.91
2024-06-15 05:56:00,SystemResetWarning,0829.2,5.01,000.00,029.9,026.5,000.0,038.8,030.6,038.5,-002.0,0025.19,0009.18,0006.89
2024-06-15 05:57:00,SystemResetWarning,0829.1,5.00,000.00,029.7,026.5,000.0,038.7,030.5,039.1,-001.8,0025.67,0009.17,0006.90
2024-06-15 05:58:00,SystemResetWarning,0829.2,5.00,000.00,029.6,026.9,000.0,038.6,030.7,039.2,-001.8,0025.43,0009.13,0006.91
2024-06-15 05:59:00,SystemResetWarning,0829.1,5.00,000.00,029.6,027.4,000.0,038.5,031.0,039.2,-001.5,0025.53,0009.07,0006.91
